Anchorage Merrill, AK

10:45 AM AKDT on June 22, 2017 (GMT -0800)
Merrill

Weather History for PAMR - May, 2014

Change the Weather History Date:

Friday, May 16, 2014

  Actual Average Record
Temperature  
Mean Temperature 58 °F -  
Max Temperature 71 °F 56 °F 71 °F (2014)
Min Temperature 45 °F 38 °F 34 °F (2002)
Degree Days  
Heating Degree Days 8    
Growing Degree Days 8 (Base 50)    
Moisture  
Dew Point 33 °F    
Average Humidity 40    
Maximum Humidity 54    
Minimum Humidity 25    
Precipitation  
Precipitation 0.00 in - - ()
Sea Level Pressure  
Sea Level Pressure 30.16 in    
Wind  
Wind Speed 1 mph (WNW)    
Max Wind Speed 6 mph    
Max Gust Speed -    
Visibility 10 miles    
Events      
Averages and records for this station are not official NWS values.
T = Trace of Precipitation, MM = Missing Value Source: NWS Daily Summary

Daily Weather History Graph

Daily Weather History Graph

Search for Another Location

Airport or City:

Trip Planner

Search our weather history database for the weather conditions in past years. The results will help you decide how hot, cold, wet, or windy it might be!

Date:

Astronomy

May. 16, 2014 Rise Set
Actual Time 5:09 AM AKDT 10:44 PM AKDT
Civil Twilight 3:57 AM AKDT 11:56 PM AKDT
Nautical Twilight 2:28 AM AKDT 1:23 AM AKDT
Astronomical Twilight Sun does not set Sun does not set
Moon No Moon Rise 7:02 AM AKDT (5/16)
Length of Visible Light 19h 59m
Length of Day
17h 34m
Waning Gibbous, 95% of the Moon is Illuminated
May 16
Waning Gibbous
May 21
Last Quarter
May 28
New
Jun 5
First Quarter
Jun 12
Full

Hourly Weather History & Observations

Time (AKDT) Temp. Windchill Dew Point Humidity Pressure Visibility Wind Dir Wind Speed Gust Speed Precip Events Conditions
12:53 AM 50.0 °F - 33.1 °F 52% 30.27 in 10.0 mi Calm Calm - N/A   Scattered Clouds
1:53 AM 48.0 °F - 32.0 °F 54% 30.27 in 10.0 mi Calm Calm - N/A   Scattered Clouds
2:53 AM 46.9 °F - 30.0 °F 52% 30.27 in 10.0 mi Calm Calm - N/A   Partly Cloudy
3:53 AM 46.0 °F - 30.0 °F 54% 30.25 in 10.0 mi Calm Calm - N/A   Clear
4:53 AM 46.0 °F - 28.9 °F 51% 30.25 in 10.0 mi Calm Calm - N/A   Partly Cloudy
5:53 AM 45.0 °F 43.5 °F 28.0 °F 52% 30.25 in 10.0 mi East 3.5 mph - N/A   Scattered Clouds
6:53 AM 46.0 °F - 30.0 °F 54% 30.24 in 10.0 mi Calm Calm - N/A   Clear
7:53 AM 51.1 °F - 30.0 °F 44% 30.23 in 10.0 mi Calm Calm - N/A   Clear
8:53 AM 55.9 °F - 28.9 °F 36% 30.22 in 10.0 mi Calm Calm - N/A   Clear
9:53 AM 57.9 °F - 26.1 °F 30% 30.21 in 10.0 mi NW 3.5 mph - N/A   Clear
10:53 AM 60.1 °F - 30.0 °F 32% 30.20 in 10.0 mi NW 4.6 mph - N/A   Clear
12:53 PM 64.0 °F - 27.0 °F 25% 30.17 in 10.0 mi Variable 3.5 mph - N/A   Clear
1:53 PM 68.0 °F - 32.0 °F 26% 30.15 in 10.0 mi West 3.5 mph - N/A   Clear
2:53 PM 70.0 °F - 33.1 °F 26% 30.12 in 10.0 mi West 3.5 mph - N/A   Clear
3:53 PM 69.1 °F - 36.0 °F 30% 30.11 in 10.0 mi WNW 5.8 mph - N/A   Clear
4:53 PM 70.0 °F - 36.0 °F 29% 30.09 in 10.0 mi West 5.8 mph - N/A   Clear
5:53 PM 68.0 °F - 39.9 °F 36% 30.08 in 10.0 mi NW 5.8 mph - N/A   Clear
6:53 PM 64.9 °F - 39.0 °F 39% 30.07 in 10.0 mi NW 5.8 mph - N/A   Clear
7:53 PM 66.9 °F - 41.0 °F 39% 30.06 in 10.0 mi West 4.6 mph - N/A   Clear
8:53 PM 64.0 °F - 39.9 °F 41% 30.06 in 10.0 mi Calm Calm - N/A   Clear
9:53 PM 63.0 °F - 37.0 °F 38% 30.06 in 10.0 mi Calm Calm - N/A   Clear
10:53 PM 62.1 °F - 35.1 °F 37% 30.06 in 10.0 mi Calm Calm - N/A   Clear
11:53 PM 59.0 °F - 32.0 °F 36% 30.06 in 10.0 mi Calm Calm - N/A   Partly Cloudy